Year,Month,Day,Hour,Minute,Value (Times are PST for temperature in C)
2018,05,29,00,00,13.10
2018,05,29,00,01,13.00
2018,05,29,00,02,13.00
2018,05,29,00,03,12.90
2018,05,29,00,04,12.80
2018,05,29,00,05,12.70
2018,05,29,00,06,12.70
2018,05,29,00,07,12.60
2018,05,29,00,08,12.50
2018,05,29,00,09,12.40
2018,05,29,00,10,12.40
2018,05,29,00,11,12.30
2018,05,29,00,12,12.30
2018,05,29,00,13,12.20
2018,05,29,00,14,12.10
2018,05,29,00,15,12.10
2018,05,29,00,16,12.10
2018,05,29,00,17,12.00
2018,05,29,00,18,11.90
2018,05,29,00,19,11.90
2018,05,29,00,20,11.80
2018,05,29,00,21,11.80
2018,05,29,00,22,11.70
2018,05,29,00,23,11.70
2018,05,29,00,24,11.70
2018,05,29,00,25,11.60
2018,05,29,00,26,11.60
2018,05,29,00,27,11.60
2018,05,29,00,28,11.50
2018,05,29,00,29,11.50
2018,05,29,00,30,11.50
2018,05,29,00,31,11.50
2018,05,29,00,32,11.40
2018,05,29,00,33,11.40
2018,05,29,00,34,11.40
2018,05,29,00,35,11.30
2018,05,29,00,36,11.30
2018,05,29,00,37,11.30
2018,05,29,00,38,11.20
2018,05,29,00,39,11.20
2018,05,29,00,40,11.10
2018,05,29,00,41,11.10
2018,05,29,00,42,11.10
2018,05,29,00,43,11.00
2018,05,29,00,44,10.90
2018,05,29,00,45,10.90
2018,05,29,00,46,11.00
2018,05,29,00,47,11.00
2018,05,29,00,48,11.10
2018,05,29,00,49,11.20
2018,05,29,00,50,11.20
2018,05,29,00,51,11.10
2018,05,29,00,52,11.10
2018,05,29,00,53,11.00
2018,05,29,00,54,11.00
2018,05,29,00,55,10.90
2018,05,29,00,56,10.90
2018,05,29,00,57,10.80
2018,05,29,00,58,10.80
2018,05,29,00,59,10.70
2018,05,29,01,00,10.70
2018,05,29,01,01,10.60
2018,05,29,01,02,10.50
2018,05,29,01,03,10.50
2018,05,29,01,04,10.40
2018,05,29,01,05,10.40
2018,05,29,01,06,10.40
2018,05,29,01,07,10.40
2018,05,29,01,08,10.40
2018,05,29,01,09,10.40
2018,05,29,01,10,10.40
2018,05,29,01,11,10.30
2018,05,29,01,12,10.30
2018,05,29,01,13,10.20
2018,05,29,01,14,10.10
2018,05,29,01,15,10.00
2018,05,29,01,16,10.00
2018,05,29,01,17,9.90
2018,05,29,01,18,9.80
2018,05,29,01,19,9.80
2018,05,29,01,20,9.70
2018,05,29,01,21,9.70
2018,05,29,01,22,9.60
2018,05,29,01,23,9.60
2018,05,29,01,24,9.50
2018,05,29,01,25,9.40
2018,05,29,01,26,9.40
2018,05,29,01,27,9.30
2018,05,29,01,28,9.30
2018,05,29,01,29,9.20
2018,05,29,01,30,9.10
2018,05,29,01,31,9.10
2018,05,29,01,32,9.00
2018,05,29,01,33,9.00
2018,05,29,01,34,8.90
2018,05,29,01,35,8.90
2018,05,29,01,36,8.90
2018,05,29,01,37,8.90
2018,05,29,01,38,8.90
2018,05,29,01,39,8.90
2018,05,29,01,40,9.00
2018,05,29,01,41,9.00
2018,05,29,01,42,9.00
2018,05,29,01,43,9.10
2018,05,29,01,44,9.10
2018,05,29,01,45,9.10
2018,05,29,01,46,9.20
2018,05,29,01,47,9.20
2018,05,29,01,48,9.20
2018,05,29,01,49,9.30
2018,05,29,01,50,9.30
2018,05,29,01,51,9.30
2018,05,29,01,52,9.30
2018,05,29,01,53,9.30
2018,05,29,01,54,9.30
2018,05,29,01,55,9.20
2018,05,29,01,56,9.20
2018,05,29,01,57,9.20
2018,05,29,01,58,9.20
2018,05,29,01,59,9.20
2018,05,29,02,00,9.20
2018,05,29,02,01,9.20
2018,05,29,02,02,9.10
2018,05,29,02,03,9.10
2018,05,29,02,04,9.10
2018,05,29,02,05,9.10
2018,05,29,02,06,9.10
2018,05,29,02,07,9.10
2018,05,29,02,08,9.10
2018,05,29,02,09,9.10
2018,05,29,02,10,9.10
2018,05,29,02,11,9.10
2018,05,29,02,12,9.10
2018,05,29,02,13,9.10
2018,05,29,02,14,9.10
2018,05,29,02,15,9.10
2018,05,29,02,16,9.10
2018,05,29,02,17,9.00
2018,05,29,02,18,8.90
2018,05,29,02,19,8.90
2018,05,29,02,20,8.90
2018,05,29,02,21,8.80
2018,05,29,02,22,8.80
2018,05,29,02,23,8.70
2018,05,29,02,24,8.70
2018,05,29,02,25,8.70
2018,05,29,02,26,8.70
2018,05,29,02,27,8.70
2018,05,29,02,28,8.60
2018,05,29,02,29,8.60
2018,05,29,02,30,8.60
2018,05,29,02,31,8.60
2018,05,29,02,32,8.60
2018,05,29,02,33,8.50
2018,05,29,02,34,8.50
2018,05,29,02,35,8.50
2018,05,29,02,36,8.40
2018,05,29,02,37,8.40
2018,05,29,02,38,8.40
2018,05,29,02,39,8.40
2018,05,29,02,40,8.40
2018,05,29,02,41,8.40
2018,05,29,02,42,8.30
2018,05,29,02,43,8.30
2018,05,29,02,44,8.30
2018,05,29,02,45,8.30
2018,05,29,02,46,8.30
2018,05,29,02,47,8.30
2018,05,29,02,48,8.30
2018,05,29,02,49,8.30
2018,05,29,02,50,8.30
2018,05,29,02,51,8.30
2018,05,29,02,52,8.30
2018,05,29,02,53,8.30
2018,05,29,02,54,8.30
2018,05,29,02,55,8.30
2018,05,29,02,56,8.20
2018,05,29,02,57,8.20
2018,05,29,02,58,8.20
2018,05,29,02,59,8.20
2018,05,29,03,00,8.20
2018,05,29,03,01,8.10
2018,05,29,03,02,8.10
2018,05,29,03,03,8.10
2018,05,29,03,04,8.10
2018,05,29,03,05,8.10
2018,05,29,03,06,8.10
2018,05,29,03,07,8.10
2018,05,29,03,08,8.10
2018,05,29,03,09,8.10
2018,05,29,03,10,8.00
2018,05,29,03,11,8.00
2018,05,29,03,12,8.00
2018,05,29,03,13,8.00
2018,05,29,03,14,7.90
2018,05,29,03,15,7.90
2018,05,29,03,16,7.90
2018,05,29,03,17,7.90
2018,05,29,03,18,7.80
2018,05,29,03,19,7.80
2018,05,29,03,20,7.80
2018,05,29,03,21,7.80
2018,05,29,03,22,7.70
2018,05,29,03,23,7.70
2018,05,29,03,24,7.70
2018,05,29,03,25,7.70
2018,05,29,03,26,7.60
2018,05,29,03,27,7.60
2018,05,29,03,28,7.60
2018,05,29,03,29,7.60
2018,05,29,03,30,7.50
2018,05,29,03,31,7.50
2018,05,29,03,32,7.40
2018,05,29,03,33,7.40
2018,05,29,03,34,7.40
2018,05,29,03,35,7.40
2018,05,29,03,36,7.30
2018,05,29,03,37,7.30
2018,05,29,03,38,7.30
2018,05,29,03,39,7.30
2018,05,29,03,40,7.30
2018,05,29,03,41,7.30
2018,05,29,03,42,7.30
2018,05,29,03,43,7.30
2018,05,29,03,44,7.30
2018,05,29,03,45,7.30
2018,05,29,03,46,7.20
2018,05,29,03,47,7.20
2018,05,29,03,48,7.20
2018,05,29,03,49,7.20
2018,05,29,03,50,7.20
2018,05,29,03,51,7.20
2018,05,29,03,52,7.20
2018,05,29,03,53,7.10
2018,05,29,03,54,7.10
2018,05,29,03,55,7.10
2018,05,29,03,56,7.10
2018,05,29,03,57,7.10
2018,05,29,03,58,7.10
2018,05,29,03,59,7.00
2018,05,29,04,00,7.00
2018,05,29,04,01,7.00
2018,05,29,04,02,7.00
2018,05,29,04,03,6.90
2018,05,29,04,04,6.90
2018,05,29,04,05,6.90
2018,05,29,04,06,6.90
2018,05,29,04,07,6.90
2018,05,29,04,08,6.80
2018,05,29,04,09,6.80
2018,05,29,04,10,6.80
2018,05,29,04,11,6.80
2018,05,29,04,12,6.80
2018,05,29,04,13,6.80
2018,05,29,04,14,6.80
2018,05,29,04,15,6.80
2018,05,29,04,16,6.80
2018,05,29,04,17,6.70
2018,05,29,04,18,6.70
2018,05,29,04,19,6.70
2018,05,29,04,20,6.70
2018,05,29,04,21,6.70
2018,05,29,04,22,6.70
2018,05,29,04,23,6.70
2018,05,29,04,24,6.70
2018,05,29,04,25,6.70
2018,05,29,04,26,6.60
2018,05,29,04,27,6.60
2018,05,29,04,28,6.60
2018,05,29,04,29,6.60
2018,05,29,04,30,6.60
2018,05,29,04,31,6.60
2018,05,29,04,32,6.60
2018,05,29,04,33,6.70
2018,05,29,04,34,6.70
2018,05,29,04,35,6.70
2018,05,29,04,36,6.60
2018,05,29,04,37,6.70
2018,05,29,04,38,6.70
2018,05,29,04,39,6.70
2018,05,29,04,40,6.70
2018,05,29,04,41,6.70
2018,05,29,04,42,6.70
2018,05,29,04,43,6.70
2018,05,29,04,44,6.70
2018,05,29,04,45,6.80
2018,05,29,04,46,6.80
2018,05,29,04,47,6.80
2018,05,29,04,48,6.80
2018,05,29,04,49,6.80
2018,05,29,04,50,6.80
2018,05,29,04,51,6.70
2018,05,29,04,52,6.70
2018,05,29,04,53,6.70
2018,05,29,04,54,6.70
2018,05,29,04,55,6.70
2018,05,29,04,56,6.70
2018,05,29,04,57,6.70
2018,05,29,04,58,6.70
2018,05,29,04,59,6.70
2018,05,29,05,00,6.70
2018,05,29,05,01,6.70
2018,05,29,05,02,6.70
2018,05,29,05,03,6.70
2018,05,29,05,04,6.70
2018,05,29,05,05,6.70
2018,05,29,05,06,6.70
2018,05,29,05,07,6.70
2018,05,29,05,08,6.70
2018,05,29,05,09,6.70
2018,05,29,05,10,6.70
2018,05,29,05,11,6.70
2018,05,29,05,12,6.70
2018,05,29,05,13,6.70
2018,05,29,05,14,6.70
2018,05,29,05,15,6.70
2018,05,29,05,16,6.70
2018,05,29,05,17,6.70
2018,05,29,05,18,6.70
2018,05,29,05,19,6.70
2018,05,29,05,20,6.70
2018,05,29,05,21,6.70
2018,05,29,05,22,6.70
2018,05,29,05,23,6.70
2018,05,29,05,24,6.70
2018,05,29,05,25,6.70
2018,05,29,05,26,6.80
2018,05,29,05,27,6.80
2018,05,29,05,28,6.80
2018,05,29,05,29,6.80
2018,05,29,05,30,6.80
2018,05,29,05,31,6.80
2018,05,29,05,32,6.80
2018,05,29,05,33,6.90
2018,05,29,05,34,6.90
2018,05,29,05,35,6.90
2018,05,29,05,36,6.90
2018,05,29,05,37,6.90
2018,05,29,05,38,6.90
2018,05,29,05,39,7.00
2018,05,29,05,40,7.00
2018,05,29,05,41,7.10
2018,05,29,05,42,7.10
2018,05,29,05,43,7.10
2018,05,29,05,44,7.10
2018,05,29,05,45,7.10
2018,05,29,05,46,7.20
2018,05,29,05,47,7.20
2018,05,29,05,48,7.20
2018,05,29,05,49,7.20
2018,05,29,05,50,7.30
2018,05,29,05,51,7.30
2018,05,29,05,52,7.30
2018,05,29,05,53,7.30
2018,05,29,05,54,7.40
2018,05,29,05,55,7.40
2018,05,29,05,56,7.40
2018,05,29,05,57,7.40
2018,05,29,05,58,7.40
2018,05,29,05,59,7.40
2018,05,29,06,00,7.40
2018,05,29,06,01,7.40
2018,05,29,06,02,7.40
2018,05,29,06,03,7.40
2018,05,29,06,04,7.30
2018,05,29,06,05,7.30
2018,05,29,06,06,7.30
2018,05,29,06,07,7.30
2018,05,29,06,08,7.20
2018,05,29,06,09,7.20
2018,05,29,06,10,7.20
2018,05,29,06,11,7.20
2018,05,29,06,12,7.20
2018,05,29,06,13,7.20
2018,05,29,06,14,7.10
2018,05,29,06,15,7.10
2018,05,29,06,16,7.10
2018,05,29,06,17,7.10
2018,05,29,06,18,7.10
2018,05,29,06,19,7.10
2018,05,29,06,20,7.10
2018,05,29,06,21,7.10
2018,05,29,06,22,7.10
2018,05,29,06,23,7.00
2018,05,29,06,24,7.00
2018,05,29,06,25,7.00
2018,05,29,06,26,7.00
2018,05,29,06,27,7.00
2018,05,29,06,28,7.00
2018,05,29,06,29,7.00
2018,05,29,06,30,6.90
2018,05,29,06,31,6.90
2018,05,29,06,32,6.90
2018,05,29,06,33,6.90
2018,05,29,06,34,6.90
2018,05,29,06,35,6.90
2018,05,29,06,36,6.90
2018,05,29,06,37,6.90
2018,05,29,06,38,6.90
2018,05,29,06,39,6.90
2018,05,29,06,40,6.90
2018,05,29,06,41,6.90
2018,05,29,06,42,6.90
2018,05,29,06,43,6.90
2018,05,29,06,44,6.90
2018,05,29,06,45,6.90
2018,05,29,06,46,6.90
2018,05,29,06,47,6.90
2018,05,29,06,48,6.90
2018,05,29,06,49,6.90
2018,05,29,06,50,6.90
2018,05,29,06,51,6.90
2018,05,29,06,52,6.90
2018,05,29,06,53,6.90
2018,05,29,06,54,6.90
2018,05,29,06,55,6.90
2018,05,29,06,56,6.90
2018,05,29,06,57,6.90
2018,05,29,06,58,7.00
2018,05,29,06,59,7.00
2018,05,29,07,00,7.00
2018,05,29,07,01,7.00
2018,05,29,07,02,7.00
2018,05,29,07,03,7.00
2018,05,29,07,04,7.10
2018,05,29,07,05,7.10
2018,05,29,07,06,7.10
2018,05,29,07,07,7.10
2018,05,29,07,08,7.10
2018,05,29,07,09,7.10
2018,05,29,07,10,7.10
2018,05,29,07,11,7.10
2018,05,29,07,12,7.20
2018,05,29,07,13,7.20
2018,05,29,07,14,7.20
2018,05,29,07,15,7.20
2018,05,29,07,16,7.20
2018,05,29,07,17,7.20
2018,05,29,07,18,7.20
2018,05,29,07,19,7.20
2018,05,29,07,20,7.20
2018,05,29,07,21,7.20
2018,05,29,07,22,7.20
2018,05,29,07,23,7.20
2018,05,29,07,24,7.30
2018,05,29,07,25,7.30
2018,05,29,07,26,7.30
2018,05,29,07,27,7.30
2018,05,29,07,28,7.30
2018,05,29,07,29,7.30
2018,05,29,07,30,7.30
2018,05,29,07,31,7.40
2018,05,29,07,32,7.40
2018,05,29,07,33,7.40
2018,05,29,07,34,7.50
2018,05,29,07,35,7.50
2018,05,29,07,36,7.50
2018,05,29,07,37,7.60
2018,05,29,07,38,7.60
2018,05,29,07,39,7.60
2018,05,29,07,40,7.60
2018,05,29,07,41,7.70
2018,05,29,07,42,7.70
2018,05,29,07,43,7.70
2018,05,29,07,44,7.70
2018,05,29,07,45,7.80
2018,05,29,07,46,7.80
2018,05,29,07,47,7.80
2018,05,29,07,48,7.80
2018,05,29,07,49,7.90
2018,05,29,07,50,7.90
2018,05,29,07,51,7.90
2018,05,29,07,52,8.00
2018,05,29,07,53,8.00
2018,05,29,07,54,8.00
2018,05,29,07,55,8.10
2018,05,29,07,56,8.10
2018,05,29,07,57,8.10
2018,05,29,07,58,8.20
2018,05,29,07,59,8.20
2018,05,29,08,00,8.20
2018,05,29,08,01,8.20
2018,05,29,08,02,8.20
2018,05,29,08,03,8.30
2018,05,29,08,04,8.30
2018,05,29,08,05,8.30
2018,05,29,08,06,8.40
2018,05,29,08,07,8.40
2018,05,29,08,08,8.50
2018,05,29,08,09,8.60
2018,05,29,08,10,8.70
2018,05,29,08,11,8.80
2018,05,29,08,12,8.90
2018,05,29,08,13,9.00
2018,05,29,08,14,9.10
2018,05,29,08,15,9.20
2018,05,29,08,16,9.30
2018,05,29,08,17,9.30
2018,05,29,08,18,9.40
2018,05,29,08,19,9.40
2018,05,29,08,20,9.60
2018,05,29,08,21,9.70
2018,05,29,08,22,9.80
2018,05,29,08,23,9.80
2018,05,29,08,24,9.90
2018,05,29,08,25,10.00
2018,05,29,08,26,10.10
2018,05,29,08,27,10.10
2018,05,29,08,28,10.20
2018,05,29,08,29,10.20
2018,05,29,08,30,10.30
2018,05,29,08,31,10.30
2018,05,29,08,32,10.30
2018,05,29,08,33,10.20
2018,05,29,08,34,10.20
2018,05,29,08,35,10.20
2018,05,29,08,36,10.20
2018,05,29,08,37,10.20
2018,05,29,08,38,10.30
2018,05,29,08,39,10.20
2018,05,29,08,40,10.20
2018,05,29,08,41,10.20
2018,05,29,08,42,10.10
2018,05,29,08,43,10.10
2018,05,29,08,44,10.10
2018,05,29,08,45,10.10
2018,05,29,08,46,10.10
2018,05,29,08,47,10.10
2018,05,29,08,48,10.10
2018,05,29,08,49,10.10
2018,05,29,08,50,10.10
2018,05,29,08,51,10.10
2018,05,29,08,52,10.10
2018,05,29,08,53,10.10
2018,05,29,08,54,10.10
2018,05,29,08,55,10.10
2018,05,29,08,56,10.20
2018,05,29,08,57,10.20
2018,05,29,08,58,10.30
2018,05,29,08,59,10.30
2018,05,29,09,00,10.30
2018,05,29,09,01,10.30
2018,05,29,09,02,10.30
2018,05,29,09,03,10.30
2018,05,29,09,04,10.30
2018,05,29,09,05,10.30
2018,05,29,09,06,10.30
2018,05,29,09,07,10.30
2018,05,29,09,08,10.30
2018,05,29,09,09,10.20
2018,05,29,09,10,10.20
2018,05,29,09,11,10.20
2018,05,29,09,12,10.20
2018,05,29,09,13,10.20
2018,05,29,09,14,10.20
2018,05,29,09,15,10.30
2018,05,29,09,16,10.30
2018,05,29,09,17,10.40
2018,05,29,09,18,10.40
2018,05,29,09,19,10.30
2018,05,29,09,20,10.30
2018,05,29,09,21,10.30
2018,05,29,09,22,10.40
2018,05,29,09,23,10.40
2018,05,29,09,24,10.40
2018,05,29,09,25,10.40
2018,05,29,09,26,10.40
2018,05,29,09,27,10.40
2018,05,29,09,28,10.40
2018,05,29,09,29,10.40
2018,05,29,09,30,10.40
2018,05,29,09,31,10.30
2018,05,29,09,32,10.30
2018,05,29,09,33,10.30
2018,05,29,09,34,10.30
2018,05,29,09,35,10.30
2018,05,29,09,36,10.30
2018,05,29,09,37,10.30
2018,05,29,09,38,10.40
2018,05,29,09,39,10.40
2018,05,29,09,40,10.40
2018,05,29,09,41,10.40
2018,05,29,09,42,10.40
2018,05,29,09,43,10.40
2018,05,29,09,44,10.50
2018,05,29,09,45,10.50
2018,05,29,09,46,10.60
2018,05,29,09,47,10.60
2018,05,29,09,48,10.60
2018,05,29,09,49,10.60
2018,05,29,09,50,10.70
2018,05,29,09,51,10.70
2018,05,29,09,52,10.70
2018,05,29,09,53,10.80
2018,05,29,09,54,10.80
2018,05,29,09,55,10.90
2018,05,29,09,56,10.90
2018,05,29,09,57,11.00
2018,05,29,09,58,11.10
2018,05,29,09,59,11.20
2018,05,29,10,00,11.30
2018,05,29,10,01,11.40
2018,05,29,10,02,11.50
2018,05,29,10,03,11.50
2018,05,29,10,04,11.50
2018,05,29,10,05,11.40
2018,05,29,10,06,11.40
2018,05,29,10,07,11.40
2018,05,29,10,08,11.40
2018,05,29,10,09,11.40
2018,05,29,10,10,11.40
2018,05,29,10,11,11.40
2018,05,29,10,12,11.50
2018,05,29,10,13,11.60
2018,05,29,10,14,11.60
2018,05,29,10,15,11.60
2018,05,29,10,16,11.50
2018,05,29,10,17,11.50
2018,05,29,10,18,11.50
2018,05,29,10,19,11.50
2018,05,29,10,20,11.40
2018,05,29,10,21,11.40
2018,05,29,10,22,11.40
2018,05,29,10,23,11.40
2018,05,29,10,24,11.40
2018,05,29,10,25,11.40
2018,05,29,10,26,11.40
2018,05,29,10,27,11.40
2018,05,29,10,28,11.40
2018,05,29,10,29,11.40
2018,05,29,10,30,11.40
2018,05,29,10,31,11.40
2018,05,29,10,32,11.40
2018,05,29,10,33,11.40
2018,05,29,10,34,11.40
2018,05,29,10,35,11.40
2018,05,29,10,36,11.40
2018,05,29,10,37,11.50
2018,05,29,10,38,11.50
2018,05,29,10,39,11.50
2018,05,29,10,40,11.60
2018,05,29,10,41,11.60
2018,05,29,10,42,11.70
2018,05,29,10,43,11.70
2018,05,29,10,44,11.70
2018,05,29,10,45,11.70
2018,05,29,10,46,11.70
2018,05,29,10,47,11.80
2018,05,29,10,48,11.90
2018,05,29,10,49,12.00
2018,05,29,10,50,12.00
2018,05,29,10,51,12.00
2018,05,29,10,52,12.10
2018,05,29,10,53,12.10
2018,05,29,10,54,12.00
2018,05,29,10,55,12.00
2018,05,29,10,56,11.90
2018,05,29,10,57,11.90
2018,05,29,10,58,11.90
2018,05,29,10,59,11.90
2018,05,29,11,00,11.90
2018,05,29,11,01,11.80
2018,05,29,11,02,11.80
2018,05,29,11,03,11.70
2018,05,29,11,04,11.70
2018,05,29,11,05,11.60
2018,05,29,11,06,11.60
2018,05,29,11,07,11.50
2018,05,29,11,08,11.50
2018,05,29,11,09,11.40
2018,05,29,11,10,11.40
2018,05,29,11,11,11.30
2018,05,29,11,12,11.30
2018,05,29,11,13,11.30
2018,05,29,11,14,11.30
2018,05,29,11,15,11.30
2018,05,29,11,16,11.30
2018,05,29,11,17,11.20
2018,05,29,11,18,11.20
2018,05,29,11,19,11.30
2018,05,29,11,20,11.30
2018,05,29,11,21,11.30
2018,05,29,11,22,11.30
2018,05,29,11,23,11.40
2018,05,29,11,24,11.50
2018,05,29,11,25,11.60
2018,05,29,11,26,11.60
2018,05,29,11,27,11.60
2018,05,29,11,28,11.60
2018,05,29,11,29,11.70
2018,05,29,11,30,11.70
2018,05,29,11,31,11.70
2018,05,29,11,32,11.70
2018,05,29,11,33,11.70
2018,05,29,11,34,11.60
2018,05,29,11,35,11.50
2018,05,29,11,36,11.50
2018,05,29,11,37,11.40
2018,05,29,11,38,11.40
2018,05,29,11,39,11.30
2018,05,29,11,40,11.20
2018,05,29,11,41,11.20
2018,05,29,11,42,11.10
2018,05,29,11,43,11.00
2018,05,29,11,44,11.00
2018,05,29,11,45,10.90
2018,05,29,11,46,10.90
2018,05,29,11,47,10.80
2018,05,29,11,48,10.80
2018,05,29,11,49,10.70
2018,05,29,11,50,10.70
2018,05,29,11,51,10.70
2018,05,29,11,52,10.70
2018,05,29,11,53,10.60
2018,05,29,11,54,10.60
2018,05,29,11,55,10.60
2018,05,29,11,56,10.50
2018,05,29,11,57,10.50
2018,05,29,11,58,10.40
2018,05,29,11,59,10.40
2018,05,29,12,00,10.30
2018,05,29,12,01,10.20
2018,05,29,12,02,10.20
2018,05,29,12,03,10.10
2018,05,29,12,04,10.10
2018,05,29,12,05,10.00
2018,05,29,12,06,10.00
2018,05,29,12,07,9.90
2018,05,29,12,08,9.80
2018,05,29,12,09,9.70
2018,05,29,12,10,9.60
2018,05,29,12,11,9.60
2018,05,29,12,12,9.50
2018,05,29,12,13,9.40
2018,05,29,12,14,9.30
2018,05,29,12,15,9.30
2018,05,29,12,16,9.20
2018,05,29,12,17,9.20
2018,05,29,12,18,9.20
2018,05,29,12,19,9.20
2018,05,29,12,20,9.20
2018,05,29,12,21,9.20
2018,05,29,12,22,9.10
2018,05,29,12,23,9.10
2018,05,29,12,24,9.10
2018,05,29,12,25,9.10
2018,05,29,12,26,9.10
2018,05,29,12,27,9.10
2018,05,29,12,28,9.00
2018,05,29,12,29,9.00
2018,05,29,12,30,9.00
2018,05,29,12,31,9.00
2018,05,29,12,32,9.00
2018,05,29,12,33,8.90
2018,05,29,12,34,8.90
2018,05,29,12,35,8.90
2018,05,29,12,36,8.90
2018,05,29,12,37,8.90
2018,05,29,12,38,8.90
2018,05,29,12,39,8.90
2018,05,29,12,40,8.90
2018,05,29,12,41,8.90
2018,05,29,12,42,8.90
2018,05,29,12,43,8.90
2018,05,29,12,44,8.90
2018,05,29,12,45,8.90
2018,05,29,12,46,8.90
2018,05,29,12,47,8.90
2018,05,29,12,48,8.90
2018,05,29,12,49,8.90
2018,05,29,12,50,8.90
2018,05,29,12,51,8.90
2018,05,29,12,52,8.90
2018,05,29,12,53,8.80
2018,05,29,12,54,8.90
2018,05,29,12,55,8.90
2018,05,29,12,56,8.90
2018,05,29,12,57,8.90
2018,05,29,12,58,8.90
2018,05,29,12,59,8.90
2018,05,29,13,00,8.90
2018,05,29,13,01,9.00
2018,05,29,13,02,9.00
2018,05,29,13,03,9.10
2018,05,29,13,04,9.10
2018,05,29,13,05,9.10
2018,05,29,13,06,9.10
2018,05,29,13,07,9.10
2018,05,29,13,08,9.00
2018,05,29,13,09,9.00
2018,05,29,13,10,8.90
2018,05,29,13,11,8.90
2018,05,29,13,12,8.90
2018,05,29,13,13,8.90
2018,05,29,13,14,8.80
2018,05,29,13,15,8.80
2018,05,29,13,16,8.80
2018,05,29,13,17,8.80
2018,05,29,13,18,8.70
2018,05,29,13,19,8.70
2018,05,29,13,20,8.70
2018,05,29,13,21,8.70
2018,05,29,13,22,8.70
2018,05,29,13,23,8.70
2018,05,29,13,24,8.80
2018,05,29,13,25,8.80
2018,05,29,13,26,8.80
2018,05,29,13,27,8.90
2018,05,29,13,28,8.90
2018,05,29,13,29,9.00
2018,05,29,13,30,9.10
2018,05,29,13,31,9.20
2018,05,29,13,32,9.20
2018,05,29,13,33,9.30
2018,05,29,13,34,9.30
2018,05,29,13,35,9.30
2018,05,29,13,36,9.40
2018,05,29,13,37,9.40
2018,05,29,13,38,9.50
2018,05,29,13,39,9.60
2018,05,29,13,40,9.60
2018,05,29,13,41,9.70
2018,05,29,13,42,9.80
2018,05,29,13,43,9.90
2018,05,29,13,44,9.90
2018,05,29,13,45,10.00
2018,05,29,13,46,10.00
2018,05,29,13,47,10.00
2018,05,29,13,48,10.10
2018,05,29,13,49,10.10
2018,05,29,13,50,10.20
2018,05,29,13,51,10.20
2018,05,29,13,52,10.30
2018,05,29,13,53,10.30
2018,05,29,13,54,10.40
2018,05,29,13,55,10.50
2018,05,29,13,56,10.50
2018,05,29,13,57,10.60
2018,05,29,13,58,10.60
2018,05,29,13,59,10.60
2018,05,29,14,00,10.60
2018,05,29,14,01,10.70
2018,05,29,14,02,10.70
2018,05,29,14,03,10.70
2018,05,29,14,04,10.80
2018,05,29,14,05,10.80
2018,05,29,14,06,10.90
2018,05,29,14,07,10.90
2018,05,29,14,08,11.00
2018,05,29,14,09,11.00
2018,05,29,14,10,11.00
2018,05,29,14,11,11.10
2018,05,29,14,12,11.10
2018,05,29,14,13,11.20
2018,05,29,14,14,11.20
2018,05,29,14,15,11.30
2018,05,29,14,16,11.40
2018,05,29,14,17,11.50
2018,05,29,14,18,11.60
2018,05,29,14,19,11.70
2018,05,29,14,20,11.80
2018,05,29,14,21,11.80
2018,05,29,14,22,11.80
2018,05,29,14,23,11.80
2018,05,29,14,24,11.90
2018,05,29,14,25,11.90
2018,05,29,14,26,12.00
2018,05,29,14,27,12.00
2018,05,29,14,28,12.10
2018,05,29,14,29,12.10
2018,05,29,14,30,12.20
2018,05,29,14,31,12.20
2018,05,29,14,32,12.30
2018,05,29,14,33,12.30
2018,05,29,14,34,12.30
2018,05,29,14,35,12.30
2018,05,29,14,36,12.30
2018,05,29,14,37,12.40
2018,05,29,14,38,12.40
2018,05,29,14,39,12.40
2018,05,29,14,40,12.40
2018,05,29,14,41,12.40
2018,05,29,14,42,12.50
2018,05,29,14,43,12.50
2018,05,29,14,44,12.50
2018,05,29,14,45,12.60
2018,05,29,14,46,12.60
2018,05,29,14,47,12.60
2018,05,29,14,48,12.60
2018,05,29,14,49,12.70
2018,05,29,14,50,12.70
2018,05,29,14,51,12.70
2018,05,29,14,52,12.70
2018,05,29,14,53,12.70
2018,05,29,14,54,12.80
2018,05,29,14,55,12.80
2018,05,29,14,56,12.90
2018,05,29,14,57,12.90
2018,05,29,14,58,13.00
2018,05,29,14,59,13.00
2018,05,29,15,00,13.00
2018,05,29,15,01,13.00
2018,05,29,15,02,12.90
2018,05,29,15,03,12.90
2018,05,29,15,04,12.90
2018,05,29,15,05,12.90
2018,05,29,15,06,12.80
2018,05,29,15,07,12.80
2018,05,29,15,08,12.80
2018,05,29,15,09,12.70
2018,05,29,15,10,12.70
2018,05,29,15,11,12.70
2018,05,29,15,12,12.70
2018,05,29,15,13,12.70
2018,05,29,15,14,12.70
2018,05,29,15,15,12.70
2018,05,29,15,16,12.70
2018,05,29,15,17,12.70
2018,05,29,15,18,12.80
2018,05,29,15,19,12.80
2018,05,29,15,20,12.80
2018,05,29,15,21,12.70
2018,05,29,15,22,12.70
2018,05,29,15,23,12.70
2018,05,29,15,24,12.70
2018,05,29,15,25,12.70
2018,05,29,15,26,12.70
2018,05,29,15,27,12.70
2018,05,29,15,28,12.80
2018,05,29,15,29,12.80
2018,05,29,15,30,12.80
2018,05,29,15,31,12.80
2018,05,29,15,32,12.80
2018,05,29,15,33,12.80
2018,05,29,15,34,12.80
2018,05,29,15,35,12.80
2018,05,29,15,36,12.80
2018,05,29,15,37,12.80
2018,05,29,15,38,12.80
2018,05,29,15,39,12.80
2018,05,29,15,40,12.80
2018,05,29,15,41,12.80
2018,05,29,15,42,12.80
2018,05,29,15,43,12.70
2018,05,29,15,44,12.70
2018,05,29,15,45,12.70
2018,05,29,15,46,12.70
2018,05,29,15,47,12.70
2018,05,29,15,48,12.60
2018,05,29,15,49,12.60
2018,05,29,15,50,12.50
2018,05,29,15,51,12.50
2018,05,29,15,52,12.40
2018,05,29,15,53,12.30
2018,05,29,15,54,12.30
2018,05,29,15,55,12.20
2018,05,29,15,56,12.10
2018,05,29,15,57,12.10
2018,05,29,15,58,12.00
2018,05,29,15,59,12.00
2018,05,29,16,00,11.90
2018,05,29,16,01,11.90
2018,05,29,16,02,11.90
2018,05,29,16,03,11.90
2018,05,29,16,04,11.80
2018,05,29,16,05,11.80
2018,05,29,16,06,11.80
2018,05,29,16,07,11.80
2018,05,29,16,08,11.80
2018,05,29,16,09,11.80
2018,05,29,16,10,11.80
2018,05,29,16,11,11.80
2018,05,29,16,12,11.80
2018,05,29,16,13,11.90
2018,05,29,16,14,11.90
2018,05,29,16,15,12.00
2018,05,29,16,16,12.10
2018,05,29,16,17,12.10
2018,05,29,16,18,12.10
2018,05,29,16,19,12.10
2018,05,29,16,20,12.10
2018,05,29,16,21,12.10
2018,05,29,16,22,12.20
2018,05,29,16,23,12.20
2018,05,29,16,24,12.30
2018,05,29,16,25,12.30
2018,05,29,16,26,12.40
2018,05,29,16,27,12.40
2018,05,29,16,28,12.50
2018,05,29,16,29,12.50
2018,05,29,16,30,12.60
2018,05,29,16,31,12.60
2018,05,29,16,32,12.70
2018,05,29,16,33,12.70
2018,05,29,16,34,12.70
2018,05,29,16,35,12.70
2018,05,29,16,36,12.80
2018,05,29,16,37,12.80
2018,05,29,16,38,12.80
2018,05,29,16,39,12.80
2018,05,29,16,40,12.80
2018,05,29,16,41,12.80
2018,05,29,16,42,12.80
2018,05,29,16,43,12.80
2018,05,29,16,44,12.80
2018,05,29,16,45,12.80
2018,05,29,16,46,12.80
2018,05,29,16,47,12.70
2018,05,29,16,48,12.70
2018,05,29,16,49,12.70
2018,05,29,16,50,12.70
2018,05,29,16,51,12.80
2018,05,29,16,52,12.80
2018,05,29,16,53,12.80
2018,05,29,16,54,12.80
2018,05,29,16,55,12.80
2018,05,29,16,56,12.80
2018,05,29,16,57,12.80
2018,05,29,16,58,12.80
2018,05,29,16,59,12.80
2018,05,29,17,00,12.80
2018,05,29,17,01,12.80
2018,05,29,17,02,12.80
2018,05,29,17,03,12.90
2018,05,29,17,04,12.90
2018,05,29,17,05,12.90
2018,05,29,17,06,13.00
2018,05,29,17,07,13.00
2018,05,29,17,08,13.10
2018,05,29,17,09,13.10
2018,05,29,17,10,13.20
2018,05,29,17,11,13.20
2018,05,29,17,12,13.20
2018,05,29,17,13,13.30
2018,05,29,17,14,13.20
2018,05,29,17,15,13.20
2018,05,29,17,16,13.20
2018,05,29,17,17,13.20
2018,05,29,17,18,13.20
2018,05,29,17,19,13.20
2018,05,29,17,20,13.20
2018,05,29,17,21,13.10
2018,05,29,17,22,13.10
2018,05,29,17,23,13.10
2018,05,29,17,24,13.10
2018,05,29,17,25,13.00
2018,05,29,17,26,13.00
2018,05,29,17,27,13.00
2018,05,29,17,28,13.00
2018,05,29,17,29,13.00
2018,05,29,17,30,13.10
2018,05,29,17,31,13.10
2018,05,29,17,32,13.10
2018,05,29,17,33,13.10
2018,05,29,17,34,13.10
2018,05,29,17,35,13.10
2018,05,29,17,36,13.10
2018,05,29,17,37,13.10
2018,05,29,17,38,13.10
2018,05,29,17,39,13.20
2018,05,29,17,40,13.10
2018,05,29,17,41,13.10
2018,05,29,17,42,13.20